ATLAS CENTAUR 2 1 00694U 63047A 26073.56670005 .00002355 00000+0 27735-3 0 9997 2 00694 30.3517 168.3866 0547622 123.2588 242.1705 14.12087243132316 THOR AGENA D R/B 1 00733U 64002A 26073.61561624 .00000280 00000+0 11701-3 0 9996 2 00733 99.1223 87.2216 0032044 243.3575 116.4324 14.34023578239001 SL-3 R/B 1 00877U 64053B 26073.61915367 .00000273 00000+0 77016-4 0 9992 2 00877 65.0778 316.7859 0079926 290.6771 68.5773 14.61372732267514 SL-8 R/B 1 02802U 67045B 26073.21155494 .00000382 00000+0 11330-3 0 9996 2 02802 74.0138 339.6456 0064419 344.8492 15.0734 14.45627208 89670 SL-8 R/B 1 03230U 68040B 26073.56782454 .00004063 00000+0 30074-3 0 9994 2 03230 74.0313 303.7267 0023717 125.6296 234.7106 15.03293086 90747 OAO 2 1 03597U 68110A 26073.54320528 .00000295 00000+0 84674-4 0 9995 2 03597 34.9925 238.1242 0006150 241.1178 118.8896 14.47311054 19805 ISIS 1 1 03669U 69009A 26073.58760459 .00000167 00000+0 10290-3 0 9998 2 03669 88.4535 154.7746 1707844 79.2819 299.5098 11.30415996349085 SERT 2 1 04327U 70009A 26073.49596216 -.00000004 00000+0 51542-4 0 9997 2 04327 99.2762 16.3266 0005233 143.8012 331.4524 13.58730271780542 SL-3 R/B 1 05118U 71028B 26073.59105449 .00057126 00000+0 65900-3 0 9991 2 05118 81.2359 45.9730 0013297 263.4977 96.4763 15.61593296989438 ASTEX 1 1 05560U 71089A 26073.23659192 .00000568 00000+0 14428-3 0 9996 2 05560 92.7115 153.2298 0017728 72.5046 287.8096 14.50775175862965 SL-8 R/B 1 05730U 71119B 26073.59725159 .00013303 00000+0 69271-3 0 9992 2 05730 73.8874 166.5452 0548037 132.1542 232.7543 14.37989418656195 OAO 3 (COPERNICUS) 1 06153U 72065A 26073.58722213 .00000429 00000+0 92256-4 0 9995 2 06153 35.0051 269.4126 0006913 206.7828 191.8188 14.60002706846913 ATLAS CENTAUR R/B 1 06155U 72065B 26073.62585598 .00001586 00000+0 21922-3 0 9991 2 06155 35.0009 276.8259 0033046 50.7465 309.6161 14.77703439841990 SL-8 R/B 1 08459U 75112B 26073.23311100 .00000271 00000+0 97592-4 0 9996 2 08459 74.0634 10.5548 0014428 101.8268 258.4505 14.38206645632526 SL-3 R/B 1 10114U 77057B 26073.57472524 .00017818 00000+0 37105-3 0 9990 2 10114 97.5777 245.7112 0006150 264.0185 96.0362 15.45648139669082 SEASAT 1 1 10967U 78064A 26073.40733628 .00000268 00000+0 11329-3 0 9993 2 10967 108.0100 135.3991 0002394 283.9369 76.1511 14.46164411507199 SL-14 R/B 1 11267U 79011B 26073.54364758 .00000717 00000+0 68212-4 0 9992 2 11267 82.5204 91.9636 0017130 45.4850 314.7766 14.91914936529504 SL-8 R/B 1 11574U 79089B 26073.46194067 .00000328 00000+0 10698-3 0 9995 2 11574 74.0667 82.2084 0017110 254.4139 105.5129 14.42354150436793 SL-14 R/B 1 11672U 80005B 26073.62697966 .00000635 00000+0 61630-4 0 9992 2 11672 82.5135 302.5527 0016585 142.5165 217.7214 14.90936740477225 SL-8 R/B 1 12139U 81003B 26073.57009528 .00027083 00000+0 69104-3 0 9994 2 12139 82.9385 285.5114 0261693 161.6314 199.4595 15.11187823315411 SL-3 R/B 1 12465U 81046B 26073.58622781 .00016448 00000+0 38075-3 0 9992 2 12465 81.2295 283.8637 0019161 5.3670 354.7774 15.42132044439181 SL-3 R/B 1 12904U 81103B 26073.57342779 .00008220 00000+0 36409-3 0 9997 2 12904 81.1591 207.7031 0012373 268.9534 91.0280 15.21445078973978 SL-3 R/B 1 13068U 82013B 26073.57947867 .00005996 00000+0 25913-3 0 9994 2 13068 81.1759 155.0402 0022920 160.9121 199.2976 15.22069483405094 SL-3 R/B 1 13154U 82039B 26073.56013409 .00003608 00000+0 21783-3 0 9992 2 13154 81.1576 210.3467 0029499 308.5487 51.3094 15.10113952382378 SL-3 R/B 1 13403U 82079B 26073.58848280 .00009617 00000+0 38219-3 0 9996 2 13403 81.1481 187.2933 0025254 148.4365 211.8390 15.24881023378442 SL-14 R/B 1 13553U 82092B 26073.64126722 .00000518 00000+0 55415-4 0 9993 2 13553 82.5685 136.7682 0018821 285.9489 226.5104 14.86671785329660 SL-3 R/B 1 13819U 83010B 26073.22561871 .00019187 00000+0 38300-3 0 9996 2 13819 81.1059 356.6865 0017665 36.1797 324.0639 15.46531792358641 SL-3 R/B 1 14208U 83075B 26073.56519786 .00014816 00000+0 38864-3 0 9994 2 14208 97.6141 78.3274 0020581 207.3916 152.6245 15.38546539330909 COSMOS 1536 1 14699U 84013A 26073.57911615 .00008308 00000+0 34210-3 0 9999 2 14699 82.5424 102.9892 0012435 264.0292 95.9528 15.23896288273368 SL-14 R/B 1 14820U 84027B 26073.47409051 .00000605 00000+0 66354-4 0 9992 2 14820 82.5392 240.5243 0016978 321.4156 38.5846 14.85982160248348 SL-8 R/B 1 15483U 85006B 26073.59849782 .00000412 00000+0 14524-3 0 9995 2 15483 74.0432 252.1146 0018236 168.6544 254.4748 14.37787266154733 SL-12 R/B(2) 1 15772U 85042D 26073.48804615 .00000164 00000+0 95348-4 0 9998 2 15772 71.1063 77.5901 0033062 120.2340 353.9115 14.21983843115071 SL-14 R/B 1 15945U 85069B 26073.59205651 .00000652 00000+0 70906-4 0 9991 2 15945 82.5293 20.3239 0018919 171.3707 188.7839 14.86439745173565 SL-16 R/B 1 16182U 85097B 26073.59431059 -.00000003 00000+0 22353-4 0 9993 2 16182 71.0018 130.2292 0009770 253.6938 258.5487 14.16598173 87925 SL-14 R/B 1 16496U 86006B 26073.56785167 .00000865 00000+0 89508-4 0 9991 2 16496 82.5236 255.1447 0075092 256.2867 102.9982 14.86823027149939 COSMOS 1743 1 16719U 86034A 26073.52102420 .00048940 00000+0 62794-3 0 9994 2 16719 82.5290 68.7583 0001693 244.7461 115.3620 15.58934649181008 SL-14 R/B 1 16792U 86046B 26073.52217360 .00000574 00000+0 63320-4 0 9996 2 16792 82.4783 75.6140 0022297 208.6883 151.3108 14.85595769127120 SL-14 R/B 1 16882U 86055B 26073.60199108 .00000490 00000+0 53664-4 0 9991 2 16882 82.5191 122.0567 0017801 319.5789 192.9597 14.85647601120091 AJISAI (EGS) 1 16908U 86061A 26073.62549173 -.00000085 00000+0 83785-4 0 9998 2 16908 50.0082 78.1692 0011284 299.7390 180.1420 12.44515690468617 SL-14 R/B 1 17567U 87024B 26073.55381094 .00000549 00000+0 59739-4 0 9994 2 17567 82.5245 88.1906 0016820 242.4341 117.5167 14.86137279 88858 COSMOS 1833 1 17589U 87027A 26073.60318463 -.00000199 00000+0 -80385-4 0 9991 2 17589 70.9212 315.6925 0024018 207.5556 152.4294 14.13053461 11017 SL-16 R/B 1 17590U 87027B 26073.56261467 .00000029 00000+0 38319-4 0 9999 2 17590 70.9992 266.2256 0003194 131.6767 228.4630 14.17166603 16037 SL-14 R/B 1 17912U 87038B 26073.61865251 .00000520 00000+0 57452-4 0 9991 2 17912 82.4993 292.1639 0020079 144.6941 215.5610 14.85374253 79969 COSMOS 1844 1 17973U 87041A 26073.56242581 -.00000098 00000+0 -25845-4 0 9994 2 17973 70.9004 23.8973 0030281 10.7011 349.4748 14.14551376 4274 SL-14 R/B 1 18153U 87055B 26073.45998417 .00000558 00000+0 61428-4 0 9990 2 18153 82.5029 344.5368 0020722 2.3194 357.8114 14.85635434 70640 COSMOS 1867 1 18187U 87060A 26073.61102465 -.00000008 00000+0 34450-4 0 9997 2 18187 65.0103 292.9233 0014569 278.9427 81.0008 14.31503833 20646 SL-14 R/B 1 18749U 88001B 26073.59035106 .00000656 00000+0 73004-4 0 9997 2 18749 82.5159 190.7520 0017145 218.4772 141.5223 14.85534531 42759 COSMOS 1933 1 18958U 88020A 26073.53619193 .00005900 00000+0 28845-3 0 9997 2 18958 82.5105 246.1158 0004293 166.9190 193.2156 15.18037175 50966 SL-3 R/B 1 19046U 88032B 26073.60427670 .00006535 00000+0 30444-3 0 9997 2 19046 97.5194 56.8378 0024804 213.3846 146.5826 15.19973637 52852 SL-16 R/B 1 19120U 88039B 26073.41945468 .00000179 00000+0 10741-3 0 9992 2 19120 71.0140 58.5454 0023033 327.4396 32.5307 14.19616514959050 COSMOS 1953 1 19210U 88050A 26073.60079219 .00009776 00000+0 34927-3 0 9992 2 19210 82.5102 153.3084 0012589 107.0522 253.2098 15.28617844 38533 SL-8 R/B 1 19257U 88053B 26073.53281792 .00000313 00000+0 10991-3 0 9992 2 19257 74.0454 103.5385 0021498 282.1836 188.5763 14.38919116977294 COSMOS 1975 1 19573U 88093A 26073.57052576 .00008667 00000+0 31405-3 0 9990 2 19573 82.5181 112.7853 0012580 147.0855 213.1171 15.28144906 20159 SL-14 R/B 1 19574U 88093B 26073.38700359 .00000692 00000+0 76761-4 0 9994 2 19574 82.5313 37.6341 0021424 26.6669 88.5712 14.85663070 1712 SL-16 R/B 1 19650U 88102B 26073.56682839 .00000192 00000+0 12111-3 0 9995 2 19650 70.9996 141.2356 0014259 353.8991 6.1956 14.16155125927583 INTERCOSMOS 24 1 20261U 89080A 26073.56833136 .00000807 00000+0 24026-3 0 9990 2 20261 82.6019 101.2265 1186680 281.4854 65.5562 12.59566177667410 SL-14 R/B 1 20262U 89080C 26073.59707730 .00000630 00000+0 18412-3 0 9990 2 20262 82.5972 170.0372 1230696 173.5371 188.3411 12.50500254660766 DELTA 1 R/B 1 20323U 89089B 26073.58709952 .00000416 00000+0 11106-3 0 9999 2 20323 97.0702 280.2468 0070649 106.7878 254.1086 14.50667585896444 ARIANE 40 R/B 1 20443U 90005H 26073.60841153 .00000319 00000+0 11508-3 0 9993 2 20443 98.3073 134.1231 0010151 183.4201 176.6920 14.39874248893514 DELTA 2 R/B(1) 1 20453U 90008B 26073.50650067 .00085344 00000+0 97544-3 0 9993 2 20453 35.6034 143.2251 0083770 303.1324 56.1395 15.56650810926885 COSMOS 2058 1 20465U 90010A 26073.41512026 .00004719 00000+0 27794-3 0 9998 2 20465 82.4666 42.7712 0008658 328.9200 31.1516 15.11367677942955 SL-14 R/B 1 20466U 90010B 26073.61049077 .00000538 00000+0 62354-4 0 9999 2 20466 82.4987 262.7649 0018354 284.8906 75.0276 14.83573891929211 SL-14 R/B 1 20511U 90018B 26073.49804053 .00000584 00000+0 70168-4 0 9990 2 20511 82.5211 218.5951 0017605 77.4954 282.8228 14.82150757923293 HST 1 20580U 90037B 26073.51012837 .00010115 00000+0 33490-3 0 9998 2 20580 28.4725 7.1142 0001767 174.4342 185.6273 15.29568851774051 SL-16 R/B 1 20625U 90046B 26073.57492899 -.00000066 00000+0 -92581-5 0 9998 2 20625 70.9977 287.6543 0016186 293.1130 66.8286 14.15011248849084 COSMOS 2084 1 20663U 90055A 26073.03885825 .00002680 00000+0 19798-3 0 9995 2 20663 62.7915 320.7451 0016403 191.1191 168.9550 15.05678754936974 SL-6 R/B(2) 1 20666U 90055D 26073.62599090 .00002697 00000+0 20945-3 0 9993 2 20666 62.7822 237.0631 0025587 348.2392 11.8106 15.03622367938933 SL-8 R/B 1 20775U 90078B 26073.54781919 .00021352 00000+0 62971-3 0 9997 2 20775 82.8997 246.9403 0361186 357.6587 2.2920 14.89236154810029 SL-8 R/B 1 21088U 91006B 26073.55349169 .00000069 00000+0 53956-4 0 9991 2 21088 82.9464 166.4302 0022788 25.0957 345.8145 13.77494931764747 OKEAN-3 1 21397U 91039A 26073.66610946 .00004258 00000+0 29890-3 0 9999 2 21397 82.5202 332.0231 0013489 318.7791 41.2416 15.04847916865785 COSMOS 2151 1 21422U 91042A 26073.61938996 .00002976 00000+0 23607-3 0 9990 2 21422 82.4929 78.9192 0013721 48.5683 311.6717 15.00127307863932 SL-14 R/B 1 21423U 91042B 26073.48454008 .00000578 00000+0 70050-4 0 9994 2 21423 82.4933 215.6861 0016054 221.7557 138.2433 14.81835276853787 ERS-1 1 21574U 91050A 26073.56309803 .00000383 00000+0 13723-3 0 9998 2 21574 98.7877 91.9201 0031902 185.9026 174.1789 14.39453721816433 ARIANE 40 R/B 1 21610U 91050F 26073.60245579 .00000357 00000+0 11919-3 0 9999 2 21610 98.2003 125.6543 0004198 70.4829 289.6815 14.42897754819707 INTERCOSMOS 25 1 21819U 91086A 26073.61085169 .00002322 00000+0 44808-3 0 9994 2 21819 82.6046 307.0338 1486870 106.3329 270.6016 12.12018447497283 SL-8 R/B 1 21876U 92008B 26073.59466392 .00000010 00000+0 -61799-5 0 9993 2 21876 82.9221 264.1284 0035731 120.0300 305.1370 13.75969758710098 SL-8 R/B 1 21938U 92020B 26073.65698146 .00000053 00000+0 39103-4 0 9996 2 21938 82.9329 150.0739 0027563 284.3106 228.3330 13.75549949701814 USA 81 1 21949U 92023A 26073.61870083 .00000191 00000+0 63189-4 0 9993 2 21949 85.0075 128.5975 0002330 73.1038 287.0410 14.32369724 95499 COSMOS 2219 1 22219U 92076A 26073.26044657 -.00000005 00000+0 22289-4 0 9994 2 22219 71.0641 8.5136 0018703 200.6809 159.3558 14.14093600719027 SL-16 R/B 1 22220U 92076B 26073.55829927 -.00000023 00000+0 12571-4 0 9992 2 22220 71.0007 178.1188 0010516 87.3459 284.5484 14.16859176722529 COSMOS 2221 1 22236U 92080A 26073.58629042 .00002286 00000+0 20003-3 0 9993 2 22236 82.5006 274.3896 0014466 170.6548 189.4946 14.96223091781520 SL-16 R/B 1 22285U 92093B 26073.47440271 -.00000054 00000+0 -34702-5 0 9990 2 22285 71.0241 354.2224 0006317 288.8537 71.1901 14.15447032713838 COSMOS 2228 1 22286U 92094A 26073.59939671 .00003022 00000+0 25837-3 0 9995 2 22286 82.5159 232.6087 0016626 286.7995 73.1403 14.97219602776792 SL-16 R/B 1 22566U 93016B 26073.58596539 -.00000101 00000+0 -27162-4 0 9993 2 22566 71.0082 204.8974 0012125 307.6583 52.3439 14.15309346702863 COSMOS 2242 1 22626U 93024A 26073.58367943 .00002667 00000+0 23172-3 0 9997 2 22626 82.5151 262.0340 0014962 291.0383 68.9239 14.96571661781129 SL-16 R/B 1 22803U 93059B 26073.48817372 .00000062 00000+0 54454-4 0 9992 2 22803 70.9930 1.0079 0018244 209.4656 150.5441 14.17231554680213 ARIANE 40 R/B 1 22830U 93061H 26073.58670435 .00000236 00000+0 10233-3 0 9992 2 22830 98.4907 142.3775 0009573 268.9707 91.0380 14.32863867694802 COSMOS 2278 1 23087U 94023A 26073.61908443 -.00000061 00000+0 -69938-5 0 9999 2 23087 71.0550 164.7856 0008397 4.3126 355.8067 14.14379645645508 SL-16 R/B 1 23088U 94023B 26073.38057291 -.00000171 00000+0 -63894-4 0 9996 2 23088 70.9984 61.0340 0005647 280.9015 79.1472 14.15010387646759 SL-16 R/B 1 23343U 94074B 26073.60544352 .00000579 00000+0 84208-4 0 9992 2 23343 97.7103 104.2242 0006127 192.9367 280.8374 14.79414592687977 SL-16 R/B 1 23405U 94077B 26073.50170747 .00000216 00000+0 13489-3 0 9996 2 23405 70.9853 342.3667 0002814 205.9420 154.1562 14.15562523616917 ARIANE 40+ R/B 1 23561U 95021B 26073.63108596 .00000338 00000+0 12174-3 0 9991 2 23561 98.4488 145.0466 0007823 123.4593 36.5174 14.39776537619951 SL-16 R/B 1 23705U 95058B 26073.57959930 .00000261 00000+0 15758-3 0 9996 2 23705 71.0224 169.9895 0010585 116.9191 243.3015 14.15498633568549 SL-16 R/B 1 24298U 96051B 26073.55691580 .00000076 00000+0 67525-4 0 9994 2 24298 70.7602 164.9375 0014671 140.5300 219.6891 14.12417012522330 ORBVIEW 2 (SEASTAR) 1 24883U 97037A 26073.43643246 .00000329 00000+0 13066-3 0 9993 2 24883 98.8575 237.8742 0002964 62.2227 297.9258 14.35498768509151 SL-16 R/B 1 25400U 98043G 26073.57286613 .00000069 00000+0 47791-4 0 9997 2 25400 98.8261 26.9710 0009973 6.7938 353.3375 14.26050978439684 SL-16 R/B 1 25407U 98045B 26073.58812647 .00000304 00000+0 17759-3 0 9991 2 25407 71.0121 171.2737 0007070 0.4072 359.7056 14.16192835427791 ISS (ZARYA) 1 25544U 98067A 26073.41792243 .00009990 00000+0 19399-3 0 9990 2 25544 51.6328 48.9797 0006389 189.6380 170.4486 15.48274195557061 CZ-4B R/B 1 25732U 99025C 26073.62481764 .00000078 00000+0 58478-4 0 9990 2 25732 98.6617 117.7893 0036488 332.2845 195.9348 14.18266455388864 OKEAN-O 1 25860U 99039A 26073.58627559 .00000846 00000+0 11783-3 0 9996 2 25860 97.9431 133.4277 0001103 71.5489 288.5843 14.80344785435118 SL-16 R/B 1 25861U 99039B 26073.15635356 .00000650 00000+0 89187-4 0 9991 2 25861 97.9957 132.2464 0013642 240.1784 119.8073 14.81738421437523 DELTA 2 R/B 1 25876U 99041E 26073.60959667 .00001428 00000+0 26804-3 0 9994 2 25876 51.7619 281.6284 0502492 2.9438 357.4267 14.11854461363728 HELIOS 1B 1 25977U 99064A 26073.62370947 .00002180 00000+0 24559-3 0 9992 2 25977 98.1688 336.0117 0002376 68.5976 291.5492 14.87722040685996 TERRA 1 25994U 99068A 26073.66505179 .00000525 00000+0 11608-3 0 9998 2 25994 97.9583 126.9095 0002996 140.3198 19.5937 14.61020819395807 SL-16 R/B 1 26070U 00006B 26073.46350521 -.00000196 00000+0 -75490-4 0 9991 2 26070 71.0004 87.7988 0016486 183.0564 177.0461 14.15824818349237 TITAN 4B R/B 1 26474U 00047B 26073.46704033 .00005880 00000+0 36658-3 0 9990 2 26474 67.9904 27.0755 0038689 29.7674 330.5665 15.09616206393633 ENVISAT 1 27386U 02009A 26073.48981661 .00000139 00000+0 58853-4 0 9993 2 27386 98.3734 26.9730 0001316 83.2381 32.8787 14.39038864259866 IDEFIX & ARIANE 42P R/B 1 27422U 02021B 26073.53009456 .00000322 00000+0 13884-3 0 9995 2 27422 98.5873 12.0787 0011858 167.7958 192.3515 14.31029973244713 AQUA 1 27424U 02022A 26073.55881654 .00001257 00000+0 26065-3 0 9991 2 27424 98.4181 41.0126 0000610 99.4370 40.4397 14.61990486269445 CZ-4B R/B 1 27432U 02024C 26073.61917165 .00000060 00000+0 53805-4 0 9990 2 27432 98.8828 127.0007 0050244 10.2649 150.5250 14.14548748229936 MIDORI II (ADEOS-II) 1 27597U 02056A 26073.49401724 .00000368 00000+0 16247-3 0 9991 2 27597 98.7775 32.0049 0001411 36.2929 323.8348 14.29289399210988 H-2A R/B 1 27601U 02056E 26073.53347476 .00000315 00000+0 12470-3 0 9991 2 27601 98.3209 33.7148 0070779 146.3358 330.7699 14.33764385214801 CZ-4B R/B 1 28059U 03049C 26073.54110321 .00000464 00000+0 11808-3 0 9999 2 28059 98.6882 68.6364 0047446 215.8095 143.9918 14.55025532187301 CZ-2C R/B 1 28222U 04012C 26073.59703400 .00080599 00000+0 80874-3 0 9999 2 28222 97.7223 139.3571 0012958 289.7217 70.2644 15.65143192205049 SL-16 R/B 1 28353U 04021B 26073.54831574 -.00000288 00000+0 -12488-3 0 9998 2 28353 70.9997 222.2957 0004339 2.5711 357.5432 14.14595913123522 CZ-4B R/B 1 28415U 04035C 26073.62086045 .00011204 00000+0 39293-3 0 9997 2 28415 97.3499 107.8047 0030525 313.3150 46.5545 15.29160798180669 CZ-2C R/B 1 28480U 04046B 26073.60424156 .00000141 00000+0 67177-4 0 9999 2 28480 98.1981 348.2823 0140148 139.9634 221.1980 14.26993937109201 ARIANE 5 R/B 1 28499U 04049H 26073.48315660 .00000854 00000+0 10065-3 0 9991 2 28499 98.2634 242.1197 0083602 336.3338 23.4039 14.85275527146503 CZ-2D R/B 1 28738U 05024B 26073.58319978 .00059010 00000+0 71030-3 0 9995 2 28738 97.3593 88.9107 0005003 34.6697 325.4885 15.60629466140546 ALOS (DAICHI) 1 28931U 06002A 26073.47251319 .00001570 00000+0 27115-3 0 9992 2 28931 98.1224 29.4041 0000772 65.5936 294.5350 14.69827339 74181 H-2A R/B 1 28932U 06002B 26073.36000846 .00013019 00000+0 64834-3 0 9998 2 28932 98.2410 220.7857 0052034 225.0507 134.6499 15.16531479 95143 RESURS-DK 1 1 29228U 06021A 26073.56082418 .00004309 00000+0 25097-3 0 9995 2 29228 69.9325 224.4218 0001360 156.3357 203.7872 15.12784346 88266 CZ-4B R/B 1 29507U 06046C 26073.55654763 .00005924 00000+0 29981-3 0 9999 2 29507 97.5589 118.4525 0031769 249.6387 110.1432 15.16959769 60780 CZ-2C R/B 1 31114U 07010B 26073.58695535 .00000162 00000+0 93551-4 0 9997 2 31114 98.3982 186.6204 0057850 280.1051 79.3603 14.20248334980411 COSMO-SKYMED 1 1 31598U 07023A 26073.61221537 .00005464 00000+0 48503-3 0 9994 2 31598 97.8882 264.6838 0001598 94.6063 265.5341 14.96582605 15646 COSMOS 2428 1 31792U 07029A 26073.63196222 .00000012 00000+0 32119-4 0 9991 2 31792 70.9438 192.9701 0009320 272.0705 87.9349 14.12947079964790 SL-16 R/B 1 31793U 07029B 26073.59070208 .00000251 00000+0 15487-3 0 9995 2 31793 70.9758 162.0835 0002286 276.2806 181.8581 14.14835383966064 KORONAS-FOTON 1 33504U 09003A 26073.62693814 .00015202 00000+0 33821-3 0 9993 2 33504 82.4272 270.7436 0011662 133.5624 226.6594 15.43435520946501 CZ-2C R/B 1 37731U 11030B 26073.48545955 .00001832 00000+0 23673-3 0 9996 2 37731 97.8546 30.6523 0051949 336.4178 136.7040 14.81242916790804 H-2A R/B 1 38341U 12025E 26073.61386029 .00003831 00000+0 34837-3 0 9994 2 38341 98.4734 41.0545 0043238 297.8386 61.8454 14.95210925748957 SHIJIAN-16 (SJ-16) 1 39358U 13057A 26073.65691259 .00002007 00000+0 19850-3 0 9999 2 39358 74.9735 175.6855 0015354 99.7692 260.5231 14.92370901672248 SL-4 R/B 1 39679U 14021B 26073.62800748 .00018593 00000+0 40572-3 0 9991 2 39679 51.6067 313.1847 0097101 120.9779 240.0789 15.39357154657035 ALOS-2 1 39766U 14029A 26073.58824030 .00002108 00000+0 28866-3 0 9998 2 39766 97.9189 172.1146 0001479 93.6447 266.4934 14.79526276637595 YAOGAN-29 1 41038U 15069A 26073.58498969 .00000940 00000+0 12234-3 0 9990 2 41038 98.0145 102.0280 0001671 28.4811 331.6493 14.83003629556604 ASTRO-H (HITOMI) 1 41337U 16012A 26073.39344529 .00003577 00000+0 20875-3 0 9991 2 41337 31.0006 326.1936 0009715 17.8304 342.2673 15.10040420552944 HXMT (HUIYAN) 1 42758U 17034A 26073.45092619 .00007289 00000+0 36307-3 0 9992 2 42758 43.0161 350.2022 0033277 264.9047 94.8002 15.17539373483261 SAOCOM 1A 1 43641U 18076A 26073.62125826 .00000565 00000+0 77492-4 0 9998 2 43641 97.8900 261.7240 0001461 86.5860 273.5520 14.82146824402099 H-2A R/B 1 43682U 18084L 26073.60138605 .00028440 00000+0 67002-3 0 9996 2 43682 98.8732 292.0399 0025056 8.5117 351.6545 15.41579589406537 SAOCOM 1B 1 46265U 20059A 26073.04490030 .00000161 00000+0 26755-4 0 9993 2 46265 97.8899 260.2532 0001383 84.3427 275.7944 14.82151938299390 CSS (TIANHE) 1 48274U 21035A 26073.00269975 .00029757 00000+0 34787-3 0 9993 2 48274 41.4663 181.9138 0006689 299.3968 60.6202 15.60904690278280 COSMOS 2550 1 48865U 21056A 26071.38646080 -.00000190 00000+0 60433-7 0 9999 2 48865 67.1461 32.7743 0008377 269.6455 90.3740 15.33837293263879 CZ-2C R/B 1 52794U 22058K 26073.65507533 .00044821 00000+0 64244-3 0 9997 2 52794 50.1888 292.7408 0042009 221.9674 137.8076 15.54619601210909 CZ-2C R/B 1 54039U 22132E 26073.56052603 .00057183 00000+0 63872-3 0 9998 2 54039 97.2960 77.0270 0020205 76.1328 284.2177 15.62339079191136 GSLV R/B 1 54149U 22138AN 26073.53436552 .00004384 00000+0 37844-3 0 9997 2 54149 87.3880 164.7410 0023533 130.3160 230.0133 14.96815129184654 XRISM 1 57800U 23137A 26073.59330807 .00007043 00000+0 39923-3 0 9991 2 57800 31.0008 251.9451 0007925 87.8995 272.2551 15.11561108138533 ACS3 1 59588U 24077B 26073.53783456 .00034152 00000+0 27219-1 0 9990 2 59588 97.2039 13.5597 0064161 64.9868 295.7941 13.89866956 94872 SZ-21 MODULE 1 66515U 25246C 26072.57488950 .00042463 00000+0 36005-3 0 9990 2 66515 41.4731 179.4377 0001010 309.0341 51.0410 15.68874146 18689